Andalusia, AL

12:13 AM CDT on June 25, 2017 (GMT -0500)
Andalusia

Weather History for K79J - March, 2013

Change the Weather History Date:

Sunday, March 17, 2013

  Actual Average (KCEW) Record (KCEW)
Temperature  
Mean Temperature 63 °F -  
Max Temperature 73 °F 68 °F 87 °F (2015)
Min Temperature 53 °F 48 °F 30 °F (1981)
Degree Days  
Heating Degree Days 2    
Growing Degree Days 13 (Base 50)    
Moisture  
Dew Point 56 °F    
Average Humidity 80    
Maximum Humidity 94    
Minimum Humidity 60    
Precipitation  
Precipitation 0.01 in - - ()
Sea Level Pressure  
Sea Level Pressure 29.99 in    
Wind  
Wind Speed 2 mph (South)    
Max Wind Speed 7 mph    
Max Gust Speed -    
Visibility 5 miles    
Events Fog , Rain    
Averages and records for this station are not official NWS values.
T = Trace of Precipitation, MM = Missing Value Source: NWS Daily Summary

Daily Weather History Graph

Daily Weather History Graph

Search for Another Location

Airport or City:

Trip Planner

Search our weather history database for the weather conditions in past years. The results will help you decide how hot, cold, wet, or windy it might be!

Date:

Astronomy

Mar. 17, 2013 Rise Set
Actual Time 6:52 AM CDT 6:55 PM CDT
Civil Twilight 6:28 AM CDT 7:19 PM CDT
Nautical Twilight 6:00 AM CDT 7:47 PM CDT
Astronomical Twilight 5:32 AM CDT 8:16 PM CDT
Moon 10:25 AM CDT (3/17) No Moon Set
Length of Visible Light 12h 50m
Length of Day
12h 02m
Waxing Crescent, 31% of the Moon is Illuminated
Mar 17
Waxing Crescent
Mar 19
First Quarter
Mar 27
Full
Apr 2
Last Quarter
Apr 10
New

Hourly Weather History & Observations

Time (CDT) Temp. Dew Point Humidity Pressure Visibility Wind Dir Wind Speed Gust Speed Precip Events Conditions
12:56 AM 60.1 °F 54.0 °F 80% 30.02 in 8.0 mi Calm Calm - N/A   Clear
1:43 AM 57.2 °F 53.6 °F 88% 30.02 in 1.5 mi Calm Calm - N/A   Clear
1:49 AM 57.2 °F 53.6 °F 88% 30.02 in 1.0 mi Calm Calm - N/A   Clear
1:56 AM 57.9 °F 54.0 °F 87% 30.01 in 1.0 mi Calm Calm - N/A   Clear
2:03 AM 59.0 °F 53.6 °F 82% 30.02 in 1.5 mi Calm Calm - N/A   Haze
2:14 AM 57.2 °F 53.6 °F 88% 30.02 in 1.0 mi Calm Calm - N/A   Clear
2:21 AM 55.4 °F 53.6 °F 94% 30.02 in 0.5 mi Calm Calm - N/A Fog Fog
2:28 AM 55.4 °F 51.8 °F 88% 30.02 in 0.2 mi Calm Calm - N/A Fog Fog
2:35 AM 53.6 °F 50.0 °F 88% 30.01 in 0.2 mi Calm Calm - N/A Fog Fog
2:43 AM 53.6 °F 50.0 °F 88% 30.01 in 0.2 mi Calm Calm - N/A Fog Fog
2:56 AM 54.0 °F 50.0 °F 86% 29.99 in 0.2 mi Calm Calm - N/A Fog Fog
3:56 AM 53.1 °F 48.0 °F 83% 29.98 in 0.2 mi Calm Calm - N/A   Haze
4:56 AM 53.1 °F 50.0 °F 89% 30.00 in 0.2 mi Calm Calm - N/A Fog Fog
5:56 AM 53.1 °F 50.0 °F 89% 30.00 in 0.2 mi SE 3.5 mph - N/A Fog Fog
6:56 AM 55.0 °F 51.1 °F 86% 30.02 in 0.2 mi Calm Calm - 0.01 in Fog , Rain Light Rain
7:56 AM 57.0 °F 53.1 °F 87% 30.03 in 0.2 mi SE 3.5 mph - 0.00 in Fog Fog
8:35 AM 60.8 °F 55.4 °F 82% 30.03 in 0.5 mi SE 4.6 mph - N/A Fog Fog
8:46 AM 60.8 °F 55.4 °F 82% 30.04 in 1.2 mi SSE 3.5 mph - N/A   Overcast
8:53 AM 60.8 °F 55.4 °F 82% 30.04 in 2.0 mi SSE 3.5 mph - N/A   Overcast
8:56 AM 60.1 °F 55.9 °F 86% 30.03 in 2.5 mi Calm Calm - N/A   Overcast
9:07 AM 60.8 °F 57.2 °F 88% 30.04 in 4.0 mi SE 3.5 mph - N/A   Mostly Cloudy
9:30 AM 62.6 °F 57.2 °F 82% 30.04 in 7.0 mi SSE 4.6 mph - N/A   Partly Cloudy
9:56 AM 64.9 °F 57.9 °F 78% 30.04 in 10.0 mi Calm Calm - N/A   Scattered Clouds
10:56 AM 69.1 °F 57.9 °F 68% 30.04 in 10.0 mi South 3.5 mph - N/A   Scattered Clouds
11:56 AM 70.0 °F 57.0 °F 63% 30.03 in 10.0 mi Variable 5.8 mph - N/A   Overcast
12:56 PM 71.1 °F 57.0 °F 61% 30.01 in 10.0 mi South 6.9 mph - N/A   Partly Cloudy
1:56 PM 71.1 °F 57.9 °F 63% 29.98 in 10.0 mi SSW 5.8 mph - N/A   Clear
2:33 PM 71.6 °F 57.2 °F 60% 29.97 in 10.0 mi Variable 4.6 mph - N/A   Mostly Cloudy
2:56 PM 72.0 °F 59.0 °F 64% 29.96 in 10.0 mi Variable 5.8 mph - N/A   Mostly Cloudy
3:18 PM 73.4 °F 59.0 °F 61% 29.96 in 10.0 mi Variable 4.6 mph - N/A   Mostly Cloudy
3:56 PM 72.0 °F 59.0 °F 64% 29.94 in 10.0 mi SW 5.8 mph - N/A   Mostly Cloudy
4:56 PM 72.0 °F 59.0 °F 64% 29.93 in 10.0 mi Variable 4.6 mph - N/A   Partly Cloudy
5:56 PM 72.0 °F 59.0 °F 64% 29.93 in 10.0 mi SSW 6.9 mph - N/A   Mostly Cloudy
6:20 PM 68.0 °F 60.8 °F 78% 29.95 in 8.0 mi Variable 3.5 mph - 0.00 in Rain Light Rain
6:36 PM 66.2 °F 60.8 °F 83% 29.96 in 7.0 mi SSE 3.5 mph - 0.00 in   Scattered Clouds
6:56 PM 66.9 °F 61.0 °F 81% 29.95 in 6.0 mi South 3.5 mph - 0.00 in   Haze
7:56 PM 66.0 °F 60.1 °F 81% 29.94 in 8.0 mi South 4.6 mph - N/A   Clear
8:56 PM 64.9 °F 60.1 °F 84% 29.95 in 7.0 mi Calm Calm - N/A   Partly Cloudy
9:13 PM 64.4 °F 60.8 °F 88% 29.96 in 7.0 mi Calm Calm - N/A   Mostly Cloudy
9:37 PM 64.4 °F 59.0 °F 83% 29.96 in 5.0 mi South 4.6 mph - N/A   Haze
9:56 PM 64.0 °F 59.0 °F 84% 29.95 in 6.0 mi South 3.5 mph - N/A   Haze
10:56 PM 63.0 °F 57.9 °F 84% 29.95 in 6.0 mi South 3.5 mph - N/A   Haze
11:06 PM 62.6 °F 57.2 °F 82% 29.96 in 5.0 mi South 4.6 mph - N/A   Partly Cloudy
11:56 PM 62.1 °F 57.0 °F 84% 29.95 in 5.0 mi South 4.6 mph - N/A   Haze